Altus, OK

6:58 AM CDT on September 27, 2016 (GMT -0500)
Altus Municipal

Weather History for KAXS - May, 2014

Change the Weather History Date:

Thursday, May 1, 2014

  Actual Average (KLTS) Record (KLTS)
Temperature  
Mean Temperature 54 °F -  
Max Temperature 74 °F 77 °F 98 °F (2002)
Min Temperature 36 °F 53 °F 41 °F (2011)
Degree Days  
Heating Degree Days 10    
Growing Degree Days 4 (Base 50)    
Moisture  
Dew Point 23 °F    
Average Humidity 30    
Maximum Humidity 62    
Minimum Humidity 13    
Precipitation  
Precipitation 0.00 in - - ()
Sea Level Pressure  
Sea Level Pressure 30.14 in    
Wind  
Wind Speed 10 mph (NNW)    
Max Wind Speed 28 mph    
Max Gust Speed 33 mph    
Visibility 10 miles    
Events      
Averages and records for this station are not official NWS values.
T = Trace of Precipitation, MM = Missing Value Source: NWS Daily Summary

Daily Weather History Graph

Daily Weather History Graph

Search for Another Location

Airport or City:

Trip Planner

Search our weather history database for the weather conditions in past years. The results will help you decide how hot, cold, wet, or windy it might be!

Date:

Astronomy

May. 01, 2014 Rise Set
Actual Time 6:46 AM CDT 8:22 PM CDT
Civil Twilight 6:20 AM CDT 8:49 PM CDT
Nautical Twilight 5:47 AM CDT 9:21 PM CDT
Astronomical Twilight 5:13 AM CDT 9:56 PM CDT
Moon 8:38 AM CDT (5/1) 10:54 PM CDT (5/1)
Length of Visible Light 14h 29m
Length of Day
13h 35m
Waxing Crescent, 7% of the Moon is Illuminated
May 1
Waxing Crescent
May 6
First Quarter
May 14
Full
May 21
Last Quarter
May 28
New

Hourly Weather History & Observations

Time (CDT) Temp. Windchill Dew Point Humidity Pressure Visibility Wind Dir Wind Speed Gust Speed Precip Events Conditions
12:15 AM 47.5 °F - 22.6 °F 38% 30.19 in 10.0 mi North 4.6 mph - N/A   Clear
12:35 AM 45.7 °F 42.7 °F 23.5 °F 42% 30.19 in 10.0 mi North 5.8 mph - N/A   Clear
12:55 AM 42.8 °F 37.5 °F 23.9 °F 47% 30.19 in 10.0 mi North 9.2 mph - N/A   Clear
1:15 AM 42.3 °F 37.3 °F 23.0 °F 47% 30.19 in 10.0 mi North 8.1 mph - N/A   Clear
1:35 AM 42.8 °F 38.6 °F 23.2 °F 46% 30.19 in 10.0 mi North 6.9 mph - N/A   Clear
1:55 AM 43.7 °F 39.7 °F 23.0 °F 44% 30.20 in 10.0 mi North 6.9 mph - N/A   Clear
2:15 AM 42.1 °F 37.1 °F 23.0 °F 47% 30.20 in 10.0 mi North 8.1 mph - N/A   Clear
2:35 AM 42.1 °F 37.1 °F 22.1 °F 45% 30.19 in 10.0 mi North 8.1 mph - N/A   Clear
2:55 AM 42.3 °F 36.8 °F 22.6 °F 46% 30.19 in 10.0 mi North 9.2 mph - N/A   Clear
3:15 AM 42.8 °F 37.0 °F 23.0 °F 46% 30.19 in 10.0 mi North 10.4 mph - N/A   Clear
3:35 AM 41.5 °F 35.4 °F 23.0 °F 48% 30.18 in 10.0 mi North 10.4 mph - N/A   Clear
4:00 AM 42.4 °F 36.5 °F 23.5 °F 47% 30.20 in 10.0 mi North 10.4 mph - N/A   Clear
4:15 AM 40.3 °F 34.4 °F 23.7 °F 52% 30.20 in 10.0 mi North 9.2 mph - N/A   Clear
4:35 AM 39.2 °F 32.5 °F 24.3 °F 55% 30.20 in 10.0 mi North 10.4 mph - N/A   Clear
4:55 AM 39.9 °F 33.9 °F 24.4 °F 54% 30.20 in 10.0 mi NNW 9.2 mph - N/A   Clear
5:15 AM 38.7 °F 31.8 °F 24.6 °F 57% 30.21 in 10.0 mi North 10.4 mph - N/A   Clear
5:35 AM 38.5 °F 31.6 °F 24.8 °F 58% 30.20 in 10.0 mi North 10.4 mph - N/A   Clear
6:15 AM 36.9 °F 29.6 °F 24.8 °F 62% 30.20 in 10.0 mi North 10.4 mph - N/A   Clear
6:35 AM 37.6 °F 31.6 °F 24.6 °F 60% 30.20 in 10.0 mi North 8.1 mph - N/A   Clear
6:55 AM 36.1 °F 29.9 °F 23.9 °F 61% 30.21 in 10.0 mi North 8.1 mph - N/A   Clear
7:15 AM 36.9 °F 32.2 °F 24.6 °F 61% 30.21 in 10.0 mi North 5.8 mph - N/A   Clear
7:35 AM 40.1 °F 34.1 °F 25.5 °F 56% 30.22 in 10.0 mi North 9.2 mph - N/A   Clear
7:55 AM 45.0 °F 39.7 °F 25.3 °F 46% 30.22 in 10.0 mi North 10.4 mph - N/A   Clear
8:15 AM 47.7 °F - 25.0 °F 41% 30.22 in 10.0 mi North 9.2 mph - N/A   Clear
8:35 AM 50.4 °F - 25.2 °F 37% 30.21 in 10.0 mi North 9.2 mph - N/A   Clear
8:55 AM 53.2 °F - 25.7 °F 34% 30.22 in 10.0 mi NNW 6.9 mph - N/A   Clear
9:15 AM 57.2 °F - 25.0 °F 29% 30.22 in 10.0 mi NNW 12.7 mph - N/A   Clear
9:55 AM 61.2 °F - 24.6 °F 25% 30.23 in 10.0 mi NNW 15.0 mph - N/A   Clear
10:15 AM 62.1 °F - 25.5 °F 25% 30.23 in 10.0 mi NNW 10.4 mph 19.6 mph N/A   Clear
10:35 AM 63.5 °F - 25.5 °F 24% 30.22 in 10.0 mi NNW 12.7 mph 20.7 mph N/A   Clear
10:55 AM 64.2 °F - 25.5 °F 23% 30.22 in 10.0 mi NNW 16.1 mph 21.9 mph N/A   Clear
11:15 AM 64.9 °F - 24.6 °F 22% 30.21 in 10.0 mi NNW 12.7 mph 19.6 mph N/A   Clear
11:35 AM 66.0 °F - 24.6 °F 21% 30.21 in 10.0 mi NNW 13.8 mph 20.7 mph N/A   Clear
11:55 AM 66.2 °F - 23.9 °F 20% 30.19 in 10.0 mi NW 15.0 mph - N/A   Clear
12:15 PM 67.1 °F - 23.5 °F 19% 30.18 in 10.0 mi NNW 19.6 mph 24.2 mph N/A   Clear
12:35 PM 67.5 °F - 23.4 °F 19% 30.17 in 10.0 mi WNW 13.8 mph 20.7 mph N/A   Clear
12:55 PM 68.4 °F - 22.8 °F 18% 30.17 in 10.0 mi NNW 16.1 mph 25.3 mph N/A   Clear
1:15 PM 68.9 °F - 23.0 °F 18% 30.15 in 10.0 mi NNW 15.0 mph 24.2 mph N/A   Clear
1:40 PM 70.2 °F - 22.3 °F 16% 30.14 in 10.0 mi NW 18.4 mph 21.9 mph N/A   Clear
1:55 PM 70.0 °F - 22.5 °F 17% 30.14 in 10.0 mi NW 11.5 mph 26.5 mph N/A   Clear
2:15 PM 70.2 °F - 21.9 °F 16% 30.12 in 10.0 mi WNW 16.1 mph 24.2 mph N/A   Clear
2:35 PM 70.2 °F - 22.3 °F 16% 30.12 in 10.0 mi WNW 10.4 mph 21.9 mph N/A   Clear
3:15 PM 73.4 °F - 21.4 °F 14% 30.10 in 10.0 mi NW 17.3 mph 33.4 mph N/A   Clear
3:35 PM 72.9 °F - 22.1 °F 15% 30.09 in 10.0 mi NW 16.1 mph 25.3 mph N/A   Clear
3:37 PM 73.4 °F - 21.2 °F 14% 30.09 in 10.0 mi NW 18.4 mph 25.3 mph N/A   Clear
3:55 PM 73.4 °F - 22.1 °F 15% 30.08 in 10.0 mi North 13.8 mph 26.5 mph N/A   Clear
4:15 PM 73.0 °F - 20.7 °F 14% 30.07 in 10.0 mi NW 18.4 mph 29.9 mph N/A   Clear
4:35 PM 73.9 °F - 21.0 °F 14% 30.06 in 10.0 mi WNW 20.7 mph 26.5 mph N/A   Clear
4:55 PM 72.7 °F - 20.7 °F 14% 30.06 in 10.0 mi NW 27.6 mph 33.4 mph N/A   Clear
5:20 PM 73.9 °F - 20.3 °F 13% 30.06 in 10.0 mi NW 12.7 mph 32.2 mph N/A   Clear
5:35 PM 73.2 °F - 20.7 °F 14% 30.05 in 10.0 mi NNW 15.0 mph 25.3 mph N/A   Clear
5:55 PM 73.2 °F - 20.7 °F 14% 30.05 in 10.0 mi NW 19.6 mph 27.6 mph N/A   Clear
6:15 PM 70.9 °F - 20.5 °F 15% 30.05 in 10.0 mi NW 10.4 mph - N/A   Clear
6:35 PM 70.5 °F - 20.3 °F 15% 30.05 in 10.0 mi NNW 13.8 mph 21.9 mph N/A   Clear
6:55 PM 72.0 °F - 20.5 °F 14% 30.04 in 10.0 mi NW 18.4 mph - N/A   Clear
7:15 PM 71.4 °F - 19.8 °F 14% 30.04 in 10.0 mi NW 13.8 mph 19.6 mph N/A   Clear
7:35 PM 70.0 °F - 19.2 °F 15% 30.05 in 10.0 mi NW 15.0 mph - N/A   Clear
7:55 PM 68.7 °F - 20.1 °F 16% 30.05 in 10.0 mi NW 9.2 mph - N/A   Clear
8:15 PM 67.1 °F - 19.9 °F 17% 30.06 in 10.0 mi NW 6.9 mph - N/A   Scattered Clouds
8:35 PM 64.8 °F - 19.8 °F 18% 30.06 in 10.0 mi NW 5.8 mph - N/A   Clear
8:55 PM 63.3 °F - 20.7 °F 19% 30.06 in 10.0 mi NW 6.9 mph - N/A   Clear
9:15 PM 62.6 °F - 20.3 °F 20% 30.06 in 10.0 mi WNW 6.9 mph - N/A   Clear
9:35 PM 61.0 °F - 21.4 °F 22% 30.07 in 10.0 mi WNW 4.6 mph - N/A   Clear
10:00 PM 61.0 °F - 23.0 °F 23% 30.07 in 10.0 mi West 6.9 mph - N/A   Clear
10:15 PM 59.2 °F - 23.5 °F 25% 30.07 in 10.0 mi Calm Calm - N/A   Clear
10:35 PM 60.4 °F - 23.9 °F 25% 30.08 in 10.0 mi North 6.9 mph - N/A   Scattered Clouds
10:55 PM 61.9 °F - 22.8 °F 22% 30.08 in 10.0 mi Calm Calm - N/A   Scattered Clouds
11:20 PM 59.0 °F - 22.3 °F 24% 30.08 in 10.0 mi NW 5.8 mph - N/A   Clear
11:35 PM 55.6 °F - 23.5 °F 29% 30.08 in 10.0 mi North 6.9 mph - N/A   Clear
11:55 PM 53.8 °F - 22.1 °F 29% 30.08 in 10.0 mi NW 5.8 mph - N/A   Clear